| time (UTC) | temp F | wind direction | speed knots | gust knots | rain 1hr in | rain 24hr in | rain mn in | humidity % | barometer mb |
| 20260506062113 | 42 | 309 | 0.0 | 1.7 | 0.00 | 0.01 | 0.00 | 62 | 1015.8 |
| 20260506061613 | 42 | 291 | 0.9 | 1.7 | 0.00 | 0.01 | 0.00 | 62 | 1015.9 |
| 20260506061113 | 42 | 9 | 0.9 | 1.7 | 0.00 | 0.01 | 0.00 | 62 | 1015.9 |
| 20260506060613 | 42 | 309 | 0.0 | 1.7 | 0.00 | 0.01 | 0.00 | 62 | 1015.8 |
| 20260506060112 | 42 | 344 | 0.0 | 1.7 | 0.00 | 0.02 | 0.00 | 62 | 1015.7 |
| 20260506051110 | 44 | 22 | 0.0 | 1.7 | 0.00 | 0.02 | 0.00 | 58 | 1015.3 |
| 20260506050611 | 44 | 334 | 0.9 | 1.7 | 0.00 | 0.03 | 0.00 | 58 | 1015.4 |
| 20260506050111 | 44 | 9 | 0.9 | 1.7 | 0.00 | 0.03 | 0.00 | 58 | 1015.2 |
| 20260506045109 | 45 | 9 | 0.9 | 1.7 | 0.00 | 0.04 | 0.03 | 57 | 1015.2 |
| 20260506044609 | 45 | 338 | 0.9 | 1.7 | 0.00 | 0.04 | 0.03 | 57 | 1015.2 |
| 20260506044108 | 45 | 325 | 0.9 | 1.7 | 0.00 | 0.05 | 0.03 | 56 | 1015.1 |
| 20260506043608 | 45 | 309 | 0.9 | 1.7 | 0.00 | 0.06 | 0.03 | 55 | 1015.0 |
| 20260506043108 | 45 | 9 | 0.9 | 1.7 | 0.00 | 0.06 | 0.03 | 55 | 1015.0 |
| 20260506042608 | 46 | 309 | 0.9 | 1.7 | 0.00 | 0.06 | 0.03 | 55 | 1015.0 |
| 20260506042108 | 46 | 279 | 0.9 | 1.7 | 0.00 | 0.06 | 0.03 | 54 | 1014.8 |
| 20260506041606 | 46 | 334 | 0.9 | 2.6 | 0.00 | 0.06 | 0.03 | 53 | 1014.9 |
| 20260506041109 | 46 | 330 | 0.9 | 2.6 | 0.00 | 0.06 | 0.03 | 52 | 1014.8 |
| 20260506040606 | 46 | 325 | 0.9 | 2.6 | 0.00 | 0.06 | 0.03 | 52 | 1014.9 |
| 20260506040106 | 46 | 265 | 1.7 | 4.3 | 0.00 | 0.06 | 0.03 | 52 | 1014.8 |
| 20260506035606 | 47 | 30 | 1.7 | 4.3 | 0.00 | 0.06 | 0.03 | 51 | 1014.7 |
| 20260506035105 | 47 | 9 | 1.7 | 4.3 | 0.00 | 0.06 | 0.03 | 51 | 1014.9 |
| 20260506034605 | 47 | 309 | 1.7 | 4.3 | 0.00 | 0.06 | 0.03 | 51 | 1014.8 |
| 20260506034105 | 47 | 334 | 1.7 | 3.5 | 0.00 | 0.06 | 0.03 | 51 | 1014.8 |
| 20260506033105 | 47 | 9 | 1.7 | 7.0 | 0.00 | 0.06 | 0.03 | 50 | 1014.8 |
| 20260506032604 | 47 | 330 | 1.7 | 7.0 | 0.00 | 0.06 | 0.03 | 49 | 1014.6 |
| 20260506032103 | 48 | 16 | 1.7 | 4.3 | 0.00 | 0.06 | 0.03 | 49 | 1014.6 |
| 20260506031105 | 48 | 9 | 1.7 | 4.3 | 0.00 | 0.06 | 0.03 | 49 | 1014.4 |
| 20260506030602 | 48 | 9 | 2.6 | 6.1 | 0.00 | 0.06 | 0.03 | 48 | 1014.3 |
| 20260506030103 | 48 | 330 | 2.6 | 6.1 | 0.00 | 0.06 | 0.03 | 48 | 1014.2 |
| 20260506025603 | 48 | 339 | 2.6 | 4.3 | 0.00 | 0.06 | 0.03 | 48 | 1014.2 |
| 20260506025102 | 48 | 321 | 2.6 | 5.2 | 0.00 | 0.06 | 0.03 | 48 | 1014.1 |
| 20260506024601 | 49 | 338 | 1.7 | 5.2 | 0.00 | 0.06 | 0.03 | 47 | 1014.2 |
| 20260506023601 | 49 | 15 | 3.5 | 7.0 | 0.00 | 0.06 | 0.03 | 46 | 1014.1 |
| 20260506023100 | 49 | 41 | 2.6 | 6.1 | 0.00 | 0.06 | 0.03 | 45 | 1014.0 |
| 20260506022600 | 49 | 9 | 2.6 | 5.2 | 0.00 | 0.06 | 0.03 | 46 | 1014.0 |
| 20260506022100 | 49 | 346 | 3.5 | 5.2 | 0.00 | 0.06 | 0.03 | 45 | 1013.8 |
| 20260506021601 | 50 | 298 | 3.5 | 8.7 | 0.00 | 0.06 | 0.03 | 44 | 1013.8 |
| 20260506021059 | 50 | 9 | 4.3 | 8.7 | 0.00 | 0.06 | 0.03 | 44 | 1013.7 |
| 20260506020559 | 50 | 334 | 3.5 | 8.7 | 0.00 | 0.06 | 0.03 | 44 | 1013.6 |
| 20260506020058 | 50 | 325 | 3.5 | 8.7 | 0.00 | 0.06 | 0.03 | 44 | 1013.6 |
| 20260506015558 | 50 | 13 | 2.6 | 7.8 | 0.00 | 0.06 | 0.03 | 43 | 1013.6 |
| 20260506015057 | 50 | 29 | 2.6 | 7.8 | 0.00 | 0.06 | 0.03 | 43 | 1013.5 |
| 20260506014556 | 51 | 325 | 3.5 | 7.8 | 0.00 | 0.06 | 0.03 | 42 | 1013.4 |
| 20260506014056 | 51 | 32 | 3.5 | 9.6 | 0.00 | 0.06 | 0.03 | 43 | 1013.3 |
| 20260506013557 | 51 | 286 | 3.5 | 9.6 | 0.00 | 0.06 | 0.03 | 42 | 1013.1 |
| 20260506013056 | 51 | 24 | 4.3 | 8.7 | 0.00 | 0.06 | 0.03 | 42 | 1013.1 |
| 20260506012556 | 51 | 340 | 4.3 | 11.3 | 0.00 | 0.06 | 0.03 | 42 | 1013.1 |
| 20260506012056 | 51 | 328 | 5.2 | 11.3 | 0.00 | 0.06 | 0.03 | 41 | 1013.0 |
| 20260506011557 | 52 | 348 | 3.5 | 9.6 | 0.00 | 0.06 | 0.03 | 42 | 1012.9 |
| 20260506011054 | 52 | 341 | 4.3 | 10.4 | 0.00 | 0.06 | 0.03 | 42 | 1013.0 |
| 20260506010554 | 52 | 11 | 5.2 | 10.4 | 0.00 | 0.06 | 0.03 | 41 | 1012.9 |
| 20260506010054 | 52 | 346 | 4.3 | 12.2 | 0.00 | 0.06 | 0.03 | 40 | 1012.9 |
| 20260506005554 | 53 | 342 | 6.1 | 13.0 | 0.00 | 0.06 | 0.03 | 40 | 1012.9 |
| 20260506004553 | 53 | 327 | 7.8 | 13.0 | 0.00 | 0.06 | 0.03 | 40 | 1012.9 |
| 20260506004053 | 53 | 305 | 6.1 | 11.3 | 0.00 | 0.06 | 0.03 | 40 | 1012.7 |
| 20260506003553 | 53 | 342 | 4.3 | 13.0 | 0.00 | 0.06 | 0.03 | 41 | 1012.7 |
| 20260506003053 | 53 | 336 | 5.2 | 13.0 | 0.00 | 0.06 | 0.03 | 39 | 1012.6 |
| 20260506002552 | 53 | 18 | 7.0 | 13.9 | 0.00 | 0.06 | 0.03 | 39 | 1012.7 |
| 20260506002054 | 53 | 22 | 7.0 | 14.8 | 0.00 | 0.06 | 0.03 | 39 | 1012.6 |
| 20260506001550 | 53 | 325 | 9.6 | 14.8 | 0.00 | 0.06 | 0.03 | 39 | 1012.6 |
| 20260506001050 | 53 | 342 | 6.1 | 12.2 | 0.00 | 0.06 | 0.03 | 40 | 1012.5 |
| 20260506000550 | 54 | 13 | 4.3 | 12.2 | 0.00 | 0.06 | 0.03 | 40 | 1012.5 |
| 20260505235549 | 54 | 23 | 5.2 | 13.0 | 0.00 | 0.06 | 0.03 | 40 | 1012.6 |
| 20260505235049 | 54 | 18 | 7.0 | 13.0 | 0.00 | 0.06 | 0.03 | 40 | 1012.5 |
| 20260505234048 | 54 | 205 | 5.2 | 13.9 | 0.00 | 0.06 | 0.03 | 39 | 1012.4 |
| 20260505232044 | 55 | 30 | 8.7 | 12.2 | 0.00 | 0.06 | 0.03 | 38 | 1012.3 |
| 20260505231542 | 55 | 11 | 6.1 | 13.9 | 0.00 | 0.06 | 0.03 | 39 | 1012.3 |
| 20260505231041 | 55 | 13 | 7.8 | 16.5 | 0.00 | 0.06 | 0.03 | 39 | 1012.3 |
| 20260505230541 | 56 | 11 | 5.2 | 16.5 | 0.00 | 0.06 | 0.03 | 39 | 1012.2 |
| 20260505230040 | 56 | 347 | 6.1 | 15.6 | 0.00 | 0.06 | 0.03 | 39 | 1012.3 |
| 20260505225540 | 57 | 351 | 7.0 | 17.4 | 0.00 | 0.06 | 0.03 | 38 | 1012.2 |
| 20260505225040 | 58 | 303 | 8.7 | 17.4 | 0.00 | 0.06 | 0.03 | 38 | 1012.1 |
| 20260505224539 | 58 | 9 | 3.5 | 11.3 | 0.00 | 0.06 | 0.03 | 38 | 1012.1 |
| 20260505224039 | 59 | 325 | 2.6 | 13.0 | 0.00 | 0.06 | 0.03 | 39 | 1012.0 |
| 20260505223540 | 59 | 301 | 6.1 | 13.0 | 0.00 | 0.06 | 0.03 | 39 | 1012.0 |
| 20260505223038 | 59 | 312 | 4.3 | 13.0 | 0.00 | 0.06 | 0.03 | 39 | 1012.0 |
| 20260505222039 | 59 | 275 | 3.5 | 12.2 | 0.00 | 0.06 | 0.03 | 38 | 1012.0 |
| 20260505221537 | 59 | 287 | 3.5 | 9.6 | 0.00 | 0.06 | 0.03 | 41 | 1012.0 |
| 20260505221037 | 58 | 338 | 3.5 | 10.4 | 0.00 | 0.06 | 0.03 | 40 | 1012.0 |
| 20260505220535 | 58 | 303 | 3.5 | 12.2 | 0.00 | 0.06 | 0.03 | 40 | 1011.9 |
| 20260505220035 | 58 | 9 | 6.1 | 12.2 | 0.00 | 0.06 | 0.03 | 41 | 1011.9 |
| 20260505215534 | 58 | 277 | 4.3 | 9.6 | 0.00 | 0.06 | 0.03 | 39 | 1011.8 |
| 20260505215032 | 58 | 257 | 3.5 | 12.2 | 0.00 | 0.06 | 0.03 | 38 | 1011.9 |
| 20260505214032 | 58 | 300 | 5.2 | 13.0 | 0.00 | 0.06 | 0.03 | 38 | 1011.9 |
| 20260505213532 | 59 | 297 | 7.0 | 13.0 | 0.00 | 0.06 | 0.03 | 38 | 1012.0 |
| 20260505213032 | 59 | 332 | 6.1 | 11.3 | 0.00 | 0.06 | 0.03 | 37 | 1012.0 |
| 20260505212532 | 59 | 350 | 3.5 | 12.2 | 0.00 | 0.06 | 0.03 | 41 | 1012.0 |
| 20260505212033 | 58 | 268 | 5.2 | 12.2 | 0.00 | 0.06 | 0.03 | 42 | 1012.2 |
| 20260505211531 | 58 | 16 | 2.6 | 13.9 | 0.00 | 0.06 | 0.03 | 41 | 1012.2 |
| 20260505211031 | 58 | 323 | 4.3 | 13.9 | 0.00 | 0.06 | 0.03 | 39 | 1012.1 |
| 20260505210531 | 58 | 314 | 7.8 | 13.9 | 0.00 | 0.06 | 0.03 | 41 | 1012.2 |
| 20260505210030 | 58 | 32 | 5.2 | 15.6 | 0.00 | 0.06 | 0.03 | 40 | 1012.3 |
| 20260505205529 | 58 | 15 | 9.6 | 15.6 | 0.00 | 0.06 | 0.03 | 40 | 1012.4 |
| 20260505205029 | 59 | 10 | 6.1 | 12.2 | 0.00 | 0.06 | 0.03 | 41 | 1012.4 |
| 20260505204528 | 59 | 57 | 5.2 | 12.2 | 0.00 | 0.06 | 0.03 | 39 | 1012.5 |
| 20260505204028 | 60 | 336 | 3.5 | 13.0 | 0.00 | 0.06 | 0.03 | 41 | 1012.5 |
| 20260505203528 | 60 | 346 | 7.8 | 13.0 | 0.00 | 0.06 | 0.03 | 39 | 1012.5 |
| 20260505203028 | 60 | 328 | 3.5 | 8.7 | 0.00 | 0.06 | 0.03 | 40 | 1012.6 |
| 20260505202527 | 60 | 344 | 5.2 | 12.2 | 0.00 | 0.06 | 0.03 | 39 | 1012.6 |
| 20260505202029 | 60 | 292 | 4.3 | 13.0 | 0.00 | 0.06 | 0.03 | 39 | 1012.6 |
| 20260505200525 | 61 | 325 | 5.2 | 13.9 | 0.00 | 0.06 | 0.03 | 39 | 1012.7 |
| 20260505200025 | 61 | 350 | 5.2 | 11.3 | 0.00 | 0.06 | 0.03 | 41 | 1012.7 |
| 20260505195524 | 61 | 339 | 4.3 | 16.5 | 0.00 | 0.06 | 0.03 | 41 | 1012.7 |
| 20260505195024 | 61 | 16 | 6.1 | 16.5 | 0.00 | 0.06 | 0.03 | 39 | 1012.7 |
| 20260505194524 | 61 | 311 | 4.3 | 13.9 | 0.00 | 0.06 | 0.03 | 41 | 1012.6 |
| 20260505194024 | 60 | 342 | 3.5 | 13.9 | 0.00 | 0.06 | 0.03 | 43 | 1012.8 |
| 20260505193524 | 60 | 330 | 5.2 | 14.8 | 0.00 | 0.06 | 0.03 | 40 | 1012.8 |
| 20260505193022 | 60 | 13 | 7.0 | 15.6 | 0.00 | 0.06 | 0.03 | 39 | 1012.7 |
| 20260505192024 | 61 | 309 | 5.2 | 13.0 | 0.00 | 0.06 | 0.03 | 38 | 1012.9 |
| 20260505191522 | 62 | 11 | 4.3 | 9.6 | 0.00 | 0.06 | 0.03 | 40 | 1013.0 |
| 20260505191022 | 62 | 302 | 3.5 | 13.0 | 0.00 | 0.06 | 0.03 | 39 | 1013.0 |
| 20260505190522 | 62 | 334 | 5.2 | 13.0 | 0.00 | 0.06 | 0.03 | 39 | 1013.0 |
| 20260505190020 | 62 | 277 | 3.5 | 8.7 | 0.00 | 0.06 | 0.03 | 44 | 1013.1 |
| 20260505185520 | 61 | 303 | 4.3 | 11.3 | 0.00 | 0.06 | 0.03 | 44 | 1013.1 |
| 20260505185020 | 60 | 329 | 3.5 | 13.9 | 0.00 | 0.06 | 0.03 | 42 | 1013.1 |
| 20260505184520 | 60 | 38 | 6.1 | 14.8 | 0.00 | 0.06 | 0.03 | 42 | 1013.1 |
| 20260505184019 | 60 | 319 | 4.3 | 18.2 | 0.00 | 0.06 | 0.03 | 42 | 1013.1 |
| 20260505183518 | 60 | 334 | 9.6 | 18.2 | 0.00 | 0.06 | 0.03 | 40 | 1013.3 |
| 20260505183018 | 62 | 344 | 4.3 | 11.3 | 0.00 | 0.06 | 0.03 | 38 | 1013.3 |
| 20260505182518 | 62 | 306 | 3.5 | 13.9 | 0.00 | 0.06 | 0.03 | 44 | 1013.3 |
| 20260505182019 | 61 | 329 | 5.2 | 14.8 | 0.00 | 0.06 | 0.03 | 47 | 1013.4 |
| 20260505181517 | 61 | 329 | 5.2 | 14.8 | 0.00 | 0.06 | 0.03 | 43 | 1013.4 |
| 20260505181016 | 61 | 324 | 7.8 | 13.9 | 0.00 | 0.06 | 0.03 | 44 | 1013.4 |
| 20260505180514 | 61 | 11 | 5.2 | 14.8 | 0.00 | 0.06 | 0.03 | 43 | 1013.4 |
| 20260505180012 | 61 | 342 | 6.1 | 14.8 | 0.00 | 0.06 | 0.03 | 46 | 1013.5 |
| 20260505175512 | 61 | 346 | 7.8 | 14.8 | 0.00 | 0.06 | 0.03 | 43 | 1013.4 |
| 20260505175011 | 61 | 314 | 4.3 | 11.3 | 0.00 | 0.06 | 0.03 | 46 | 1013.3 |
| 20260505174511 | 61 | 309 | 3.5 | 11.3 | 0.00 | 0.06 | 0.03 | 45 | 1013.3 |
| 20260505173011 | 59 | 317 | 3.5 | 11.3 | 0.00 | 0.06 | 0.03 | 48 | 1013.5 |
| 20260505172509 | 58 | 9 | 6.1 | 11.3 | 0.00 | 0.06 | 0.03 | 53 | 1013.7 |
| 20260505172010 | 57 | 294 | 2.6 | 7.0 | 0.00 | 0.06 | 0.03 | 53 | 1013.6 |
| 20260505171509 | 57 | 51 | 0.9 | 6.1 | 0.00 | 0.06 | 0.03 | 47 | 1013.8 |
| 20260505171008 | 57 | 254 | 1.7 | 6.1 | 0.00 | 0.06 | 0.03 | 55 | 1013.7 |
| 20260505170508 | 57 | 286 | 1.7 | 6.1 | 0.00 | 0.06 | 0.03 | 53 | 1013.9 |
| 20260505170008 | 56 | 289 | 1.7 | 6.1 | 0.00 | 0.06 | 0.03 | 50 | 1013.9 |
| 20260505165507 | 56 | 286 | 3.5 | 6.1 | 0.00 | 0.06 | 0.03 | 52 | 1013.9 |
| 20260505165007 | 56 | 317 | 1.7 | 5.2 | 0.00 | 0.06 | 0.03 | 55 | 1013.9 |
| 20260505164506 | 56 | 325 | 2.6 | 5.2 | 0.00 | 0.06 | 0.03 | 53 | 1014.1 |
| 20260505163506 | 56 | 16 | 1.7 | 5.2 | 0.00 | 0.06 | 0.03 | 56 | 1014.0 |
| 20260505163005 | 55 | 281 | 1.7 | 7.0 | 0.00 | 0.06 | 0.03 | 60 | 1013.9 |
| 20260505162506 | 54 | 9 | 0.9 | 7.8 | 0.00 | 0.06 | 0.03 | 60 | 1013.7 |
| 20260505162005 | 54 | 338 | 1.7 | 7.8 | 0.00 | 0.06 | 0.03 | 62 | 1013.6 |
| 20260505161005 | 53 | 309 | 1.7 | 7.0 | 0.00 | 0.06 | 0.03 | 63 | 1013.6 |
| 20260505160503 | 53 | 279 | 1.7 | 7.0 | 0.00 | 0.06 | 0.03 | 65 | 1013.5 |
| 20260505153003 | 50 | 323 | 1.7 | 7.0 | 0.00 | 0.06 | 0.03 | 71 | 1013.4 |
| 20260505152002 | 49 | 247 | 1.7 | 7.0 | 0.00 | 0.06 | 0.03 | 72 | 1013.3 |
| 20260505151502 | 49 | 334 | 2.6 | 7.8 | 0.00 | 0.06 | 0.03 | 72 | 1013.3 |
| 20260505151001 | 49 | 334 | 2.6 | 7.8 | 0.00 | 0.06 | 0.03 | 74 | 1013.4 |
| 20260505150501 | 49 | 309 | 2.6 | 7.0 | 0.00 | 0.06 | 0.03 | 74 | 1013.1 |
| 20260505140459 | 46 | 282 | 1.7 | 5.2 | 0.00 | 0.06 | 0.03 | 83 | 1013.0 |
| 20260505124948 | 46 | 19 | 0.9 | 2.6 | 0.00 | 0.06 | 0.03 | 88 | 1011.8 |
| 20260505124448 | 45 | 334 | 0.9 | 2.6 | 0.00 | 0.06 | 0.03 | 89 | 1011.7 |
| 20260505122947 | 44 | 325 | 0.9 | 1.7 | 0.00 | 0.06 | 0.03 | 88 | 1011.4 |
| 20260505122447 | 44 | 275 | 0.0 | 1.7 | 0.00 | 0.06 | 0.03 | 88 | 1011.4 |
| 20260505121946 | 44 | 255 | 0.9 | 1.7 | 0.00 | 0.06 | 0.03 | 88 | 1011.2 |
| 20260505121446 | 44 | 338 | 0.0 | 1.7 | 0.00 | 0.06 | 0.03 | 88 | 1011.1 |
| 20260505120944 | 44 | 319 | 0.9 | 1.7 | 0.00 | 0.06 | 0.03 | 88 | 1010.9 |
| 20260505115944 | 44 | 229 | 0.9 | 1.7 | 0.00 | 0.06 | 0.03 | 88 | 1010.8 |
| 20260505115444 | 44 | 9 | 0.0 | 0.9 | 0.00 | 0.06 | 0.03 | 87 | 1010.6 |
| 20260505114442 | 44 | 319 | 0.9 | 1.7 | 0.00 | 0.06 | 0.03 | 87 | 1010.4 |
| 20260505113943 | 44 | 26 | 0.9 | 1.7 | 0.00 | 0.06 | 0.03 | 87 | 1010.3 |
| 20260505113442 | 44 | 9 | 0.0 | 0.9 | 0.00 | 0.06 | 0.03 | 87 | 1010.5 |
| 20260505112944 | 44 | 34 | 0.0 | 0.9 | 0.00 | 0.06 | 0.03 | 87 | 1010.4 |
| 20260505112443 | 44 | 51 | 0.0 | 0.9 | 0.00 | 0.06 | 0.03 | 87 | 1010.4 |
| 20260505111442 | 44 | 146 | 0.0 | 0.9 | 0.00 | 0.06 | 0.03 | 87 | 1010.5 |
| 20260505110941 | 44 | 9 | 0.0 | 0.9 | 0.00 | 0.06 | 0.03 | 87 | 1010.5 |
| 20260505110441 | 44 | 137 | 0.0 | 0.9 | 0.00 | 0.06 | 0.03 | 87 | 1010.6 |
| 20260505101923 | 45 | 9 | 0.9 | 1.7 | 0.00 | 0.06 | 0.03 | 88 | 1010.9 |
| 20260505101424 | 45 | 330 | 0.9 | 2.6 | 0.00 | 0.06 | 0.03 | 88 | 1010.8 |
| 20260505100422 | 45 | 34 | 0.9 | 1.7 | 0.00 | 0.06 | 0.03 | 88 | 1010.8 |
| 20260505095917 | 45 | 325 | 0.9 | 1.7 | 0.00 | 0.06 | 0.03 | 88 | 1010.8 |
| 20260505095416 | 45 | 291 | 0.0 | 1.7 | 0.00 | 0.06 | 0.03 | 88 | 1010.7 |
| 20260505094915 | 45 | 9 | 0.9 | 1.7 | 0.00 | 0.06 | 0.03 | 88 | 1010.5 |
| 20260505093916 | 45 | 265 | 0.9 | 1.7 | 0.00 | 0.06 | 0.03 | 88 | 1010.6 |
| 20260505093414 | 45 | 265 | 0.0 | 2.6 | 0.00 | 0.06 | 0.03 | 88 | 1010.4 |
| 20260505092913 | 45 | 309 | 0.9 | 3.5 | 0.00 | 0.06 | 0.03 | 88 | 1010.3 |
| 20260505092413 | 45 | 16 | 1.7 | 3.5 | 0.00 | 0.06 | 0.03 | 88 | 1010.2 |
| 20260505091914 | 45 | 346 | 1.7 | 3.5 | 0.00 | 0.06 | 0.03 | 88 | 1009.9 |
| 20260505085912 | 46 | 334 | 0.9 | 2.6 | 0.00 | 0.06 | 0.03 | 88 | 1009.8 |
| 20260505085414 | 46 | 282 | 0.9 | 2.6 | 0.00 | 0.06 | 0.03 | 88 | 1009.7 |
| 20260505084912 | 46 | 344 | 0.9 | 2.6 | 0.00 | 0.06 | 0.03 | 87 | 1009.8 |
| 20260505084412 | 46 | 337 | 1.7 | 2.6 | 0.00 | 0.06 | 0.03 | 87 | 1009.8 |
| 20260505083911 | 46 | 348 | 0.9 | 2.6 | 0.00 | 0.06 | 0.03 | 87 | 1009.7 |
| 20260505083410 | 47 | 282 | 0.9 | 1.7 | 0.00 | 0.06 | 0.03 | 87 | 1009.7 |
| 20260505082911 | 47 | 298 | 0.9 | 1.7 | 0.00 | 0.06 | 0.03 | 87 | 1009.5 |
| 20260505082410 | 47 | 319 | 0.9 | 2.6 | 0.00 | 0.06 | 0.03 | 87 | 1009.4 |
| 20260505081910 | 47 | 9 | 0.0 | 2.6 | 0.00 | 0.06 | 0.03 | 87 | 1009.3 |
| 20260505081409 | 47 | 309 | 0.9 | 1.7 | 0.00 | 0.06 | 0.03 | 87 | 1009.3 |
| 20260505080909 | 47 | 309 | 0.9 | 0.9 | 0.00 | 0.06 | 0.03 | 87 | 1009.1 |
| 20260505080411 | 47 | 325 | 0.0 | 1.7 | 0.00 | 0.06 | 0.03 | 87 | 1009.1 |
| 20260505075908 | 47 | 291 | 0.0 | 1.7 | 0.00 | 0.06 | 0.03 | 87 | 1008.9 |
| 20260505075408 | 47 | 338 | 0.9 | 1.7 | 0.00 | 0.06 | 0.03 | 87 | 1008.7 |
| 20260505074909 | 47 | 9 | 0.9 | 1.7 | 0.01 | 0.06 | 0.03 | 87 | 1008.9 |
| 20260505074407 | 47 | 342 | 0.9 | 1.7 | 0.01 | 0.06 | 0.03 | 87 | 1008.9 |
| 20260505073406 | 47 | 9 | 0.9 | 1.7 | 0.01 | 0.06 | 0.03 | 87 | 1009.0 |
| 20260505072908 | 48 | 9 | 0.9 | 1.7 | 0.01 | 0.06 | 0.03 | 86 | 1009.0 |
| 20260505072408 | 48 | 319 | 0.0 | 0.9 | 0.01 | 0.06 | 0.03 | 86 | 1009.0 |
| 20260505071906 | 48 | 221 | 0.0 | 1.7 | 0.01 | 0.06 | 0.03 | 86 | 1009.0 |
| 20260505071405 | 48 | 178 | 0.9 | 1.7 | 0.01 | 0.06 | 0.03 | 86 | 1008.9 |
| 20260505070906 | 48 | 238 | 0.9 | 2.6 | 0.01 | 0.06 | 0.03 | 86 | 1008.9 |
| 20260505065404 | 48 | 309 | 0.9 | 1.7 | 0.02 | 0.06 | 0.03 | 85 | 1008.5 |